DBOBS ENJA-BIAR

Flight info

Callsign DBOBS
Flight time 1h 16m
Altitude 34000
Route GR35F CUBAS CUBA1M
Aircraft EPIC/L-SBGRY/LB1

Departure

Time 2026-05-07 19:30
Airport Jan Mayensfield (ENJA)

Arrival

Time 2026-05-07 20:47
Airport Akureyri International Airport (BIAR)
Time Latitude Longitude Altitude Speed Heading
2026-05-07 19:20 70.94161 -8.66094 76 ft 0 kts 86°
2026-05-07 19:23 70.94160 -8.66094 76 ft 0 kts 86°
2026-05-07 19:26 70.94161 -8.66090 76 ft 0 kts 83°
2026-05-07 19:26 70.94167 -8.65928 76 ft 13 kts 58°
2026-05-07 19:27 70.94234 -8.65711 77 ft 12 kts 33°
2026-05-07 19:27 70.94321 -8.65460 75 ft 21 kts 39°
2026-05-07 19:27 70.94447 -8.65155 69 ft 26 kts 37°
2026-05-07 19:27 70.94568 -8.64833 62 ft 23 kts 42°
2026-05-07 19:28 70.94712 -8.64478 58 ft 28 kts 40°
2026-05-07 19:28 70.94845 -8.64134 53 ft 16 kts 41°
2026-05-07 19:28 70.94946 -8.63893 49 ft 16 kts 33°
2026-05-07 19:28 70.94952 -8.63854 49 ft 11 kts 221°
2026-05-07 19:29 70.94947 -8.63866 49 ft 0 kts 217°
2026-05-07 19:29 70.94759 -8.64344 56 ft 70 kts 219°
2026-05-07 19:29 70.94264 -8.65653 97 ft 110 kts 217°
2026-05-07 19:30 70.93555 -8.67353 160 ft 145 kts 220°
2026-05-07 19:30 70.92770 -8.69429 496 ft 156 kts 220°
2026-05-07 19:30 70.91935 -8.71608 965 ft 158 kts 219°
2026-05-07 19:30 70.91103 -8.73772 1455 ft 158 kts 220°
2026-05-07 19:31 70.90285 -8.75960 1919 ft 160 kts 220°
2026-05-07 19:31 70.89426 -8.78248 2575 ft 166 kts 219°
2026-05-07 19:31 70.88584 -8.80496 3439 ft 165 kts 219°
2026-05-07 19:31 70.87738 -8.82750 4314 ft 164 kts 219°
2026-05-07 19:32 70.86893 -8.84997 5159 ft 165 kts 219°
2026-05-07 19:32 70.86041 -8.87262 5999 ft 166 kts 219°
2026-05-07 19:32 70.85179 -8.89548 6843 ft 167 kts 219°
2026-05-07 19:32 70.84323 -8.91820 7676 ft 168 kts 219°
2026-05-07 19:33 70.83446 -8.94141 8506 ft 170 kts 219°
2026-05-07 19:33 70.82564 -8.96475 9326 ft 172 kts 219°
2026-05-07 19:33 70.81664 -8.98852 10149 ft 174 kts 219°
2026-05-07 19:33 70.80762 -9.01234 10964 ft 176 kts 219°
2026-05-07 19:34 70.79842 -9.03656 11769 ft 179 kts 219°
2026-05-07 19:34 70.78908 -9.06115 12575 ft 182 kts 219°
2026-05-07 19:34 70.77963 -9.08599 13373 ft 184 kts 220°
2026-05-07 19:34 70.77002 -9.11124 14178 ft 187 kts 220°
2026-05-07 19:35 70.76027 -9.13682 14980 ft 189 kts 220°
2026-05-07 19:35 70.75033 -9.16288 15773 ft 192 kts 220°
2026-05-07 19:35 70.74023 -9.18926 16479 ft 200 kts 220°
2026-05-07 19:35 70.72938 -9.21758 17148 ft 209 kts 220°
2026-05-07 19:36 70.71822 -9.24669 17887 ft 213 kts 220°
2026-05-07 19:36 70.70690 -9.27617 18645 ft 216 kts 220°
2026-05-07 19:36 70.69514 -9.30676 19425 ft 219 kts 220°
2026-05-07 19:36 70.68349 -9.33699 20180 ft 222 kts 220°
2026-05-07 19:37 70.67162 -9.36776 20922 ft 225 kts 220°
2026-05-07 19:37 70.65974 -9.39848 21645 ft 226 kts 220°
2026-05-07 19:37 70.64759 -9.42986 22266 ft 229 kts 220°
2026-05-07 19:37 70.63535 -9.46142 22864 ft 233 kts 220°
2026-05-07 19:38 70.62296 -9.49331 23465 ft 235 kts 221°
2026-05-07 19:38 70.61022 -9.52606 24071 ft 238 kts 221°
2026-05-07 19:38 70.59735 -9.55909 24673 ft 241 kts 221°
2026-05-07 19:38 70.58446 -9.59209 25241 ft 244 kts 221°
2026-05-07 19:39 70.57155 -9.62506 25756 ft 246 kts 221°
2026-05-07 19:39 70.55837 -9.65869 26276 ft 247 kts 220°
2026-05-07 19:39 70.54520 -9.69221 26772 ft 249 kts 220°
2026-05-07 19:39 70.53626 -9.71492 27082 ft 248 kts 220°
2026-05-07 19:40 70.51847 -9.76011 27542 ft 252 kts 220°
2026-05-07 19:40 70.50465 -9.79515 27885 ft 254 kts 220°
2026-05-07 19:40 70.49097 -9.82975 28273 ft 253 kts 220°
2026-05-07 19:40 70.47746 -9.86386 28819 ft 245 kts 220°
2026-05-07 19:41 70.46432 -9.89701 29233 ft 244 kts 220°
2026-05-07 19:41 70.45129 -9.92976 29570 ft 244 kts 220°
2026-05-07 19:41 70.43807 -9.96295 29856 ft 247 kts 220°
2026-05-07 19:41 70.42459 -9.99673 30149 ft 249 kts 220°
2026-05-07 19:42 70.41105 -10.03060 30446 ft 250 kts 220°
2026-05-07 19:42 70.39771 -10.06392 30551 ft 262 kts 220°
2026-05-07 19:42 70.38347 -10.09940 30540 ft 275 kts 220°
2026-05-07 19:42 70.36858 -10.13649 30532 ft 285 kts 220°
2026-05-07 19:43 70.35307 -10.17506 30528 ft 294 kts 220°
2026-05-07 19:43 70.33736 -10.21402 30629 ft 298 kts 220°
2026-05-07 19:43 70.32181 -10.25249 31115 ft 281 kts 220°
2026-05-07 19:43 70.30738 -10.28806 31531 ft 270 kts 220°
2026-05-07 19:44 70.29327 -10.32282 31896 ft 262 kts 220°
2026-05-07 19:44 70.27940 -10.35689 32227 ft 257 kts 220°
2026-05-07 19:44 70.26545 -10.39114 32228 ft 271 kts 220°
2026-05-07 19:44 70.25070 -10.42726 32234 ft 281 kts 220°
2026-05-07 19:45 70.23561 -10.46417 32229 ft 289 kts 220°
2026-05-07 19:45 70.21985 -10.50267 32227 ft 296 kts 220°
2026-05-07 19:45 70.18749 -10.58139 32222 ft 306 kts 220°
2026-05-07 19:46 70.17117 -10.62100 32448 ft 299 kts 220°
2026-05-07 19:46 70.15627 -10.65705 33159 ft 269 kts 219°
2026-05-07 19:46 70.14181 -10.69194 33251 ft 276 kts 219°
2026-05-07 19:46 70.12697 -10.72772 33239 ft 284 kts 219°
2026-05-07 19:47 70.11150 -10.76500 33229 ft 292 kts 219°
2026-05-07 19:47 70.09571 -10.80292 33227 ft 299 kts 219°
2026-05-07 19:47 70.06297 -10.88129 33306 ft 308 kts 219°
2026-05-07 19:48 70.04670 -10.92012 33812 ft 290 kts 219°
2026-05-07 19:48 70.03142 -10.95647 34128 ft 285 kts 219°
2026-05-07 19:48 70.01610 -10.99291 34204 ft 289 kts 219°
2026-05-07 19:48 70.00030 -11.03036 34218 ft 295 kts 219°
2026-05-07 19:49 69.96738 -11.10823 34222 ft 305 kts 219°
2026-05-07 19:49 69.93375 -11.18745 34222 ft 312 kts 219°
2026-05-07 19:50 69.89968 -11.26736 34222 ft 317 kts 219°
2026-05-07 19:50 69.86527 -11.34770 34220 ft 321 kts 219°
2026-05-07 19:51 69.83055 -11.42842 34221 ft 323 kts 219°
2026-05-07 19:51 69.79554 -11.50946 34221 ft 325 kts 219°
2026-05-07 19:52 69.76031 -11.59061 34219 ft 326 kts 219°
2026-05-07 19:52 69.72495 -11.67178 34217 ft 327 kts 219°
2026-05-07 19:53 69.68961 -11.75253 34222 ft 327 kts 219°
2026-05-07 19:53 69.65395 -11.83359 34230 ft 327 kts 219°
2026-05-07 19:54 69.61857 -11.91372 34231 ft 328 kts 219°
2026-05-07 19:54 69.58274 -11.99445 34235 ft 328 kts 219°
2026-05-07 19:55 69.54693 -12.07485 34236 ft 329 kts 219°
2026-05-07 19:55 69.51117 -12.15477 34238 ft 329 kts 219°
2026-05-07 19:56 69.47522 -12.23478 34238 ft 329 kts 219°
2026-05-07 19:56 69.43916 -12.31466 34237 ft 329 kts 219°
2026-05-07 19:57 69.40324 -12.39386 34238 ft 329 kts 219°
2026-05-07 19:57 69.36710 -12.47321 34241 ft 334 kts 219°
2026-05-07 19:58 69.33009 -12.55414 34239 ft 338 kts 219°
2026-05-07 19:58 69.29301 -12.63487 34241 ft 340 kts 219°
2026-05-07 19:59 69.25556 -12.71600 34238 ft 342 kts 218°
2026-05-07 19:59 69.21783 -12.79741 34236 ft 343 kts 218°
2026-05-07 20:00 69.18002 -12.87863 34235 ft 344 kts 218°
2026-05-07 20:00 69.14217 -12.95955 34237 ft 346 kts 218°
2026-05-07 20:01 69.10380 -13.04120 34236 ft 347 kts 218°
2026-05-07 20:01 69.06535 -13.12267 34237 ft 348 kts 218°
2026-05-07 20:02 69.02696 -13.20367 34238 ft 349 kts 218°
2026-05-07 20:02 68.98813 -13.28522 34242 ft 349 kts 218°
2026-05-07 20:03 68.94959 -13.36579 34241 ft 350 kts 218°
2026-05-07 20:03 68.91061 -13.44688 34244 ft 351 kts 218°
2026-05-07 20:04 68.87181 -13.52725 34241 ft 352 kts 218°
2026-05-07 20:04 68.83284 -13.60762 34244 ft 352 kts 218°
2026-05-07 20:05 68.79363 -13.68816 34247 ft 352 kts 217°
2026-05-07 20:05 68.75437 -13.76839 34248 ft 352 kts 217°
2026-05-07 20:06 68.71522 -13.84805 34247 ft 352 kts 217°
2026-05-07 20:06 68.67590 -13.92770 34248 ft 353 kts 217°
2026-05-07 20:07 68.63680 -14.00656 34249 ft 353 kts 217°
2026-05-07 20:07 68.59724 -14.08598 34248 ft 353 kts 217°
2026-05-07 20:08 68.55783 -14.16476 34247 ft 353 kts 217°
2026-05-07 20:08 68.51828 -14.24346 34248 ft 353 kts 217°
2026-05-07 20:09 68.47855 -14.32217 34247 ft 354 kts 217°
2026-05-07 20:10 68.41931 -14.43891 34247 ft 354 kts 217°
2026-05-07 20:10 68.37958 -14.51677 34249 ft 354 kts 217°
2026-05-07 20:11 68.33965 -14.59462 34255 ft 354 kts 217°
2026-05-07 20:11 68.29987 -14.67191 34254 ft 355 kts 217°
2026-05-07 20:12 68.25989 -14.74921 34254 ft 355 kts 217°
2026-05-07 20:12 68.21984 -14.82632 34257 ft 355 kts 217°
2026-05-07 20:13 68.17976 -14.90316 34259 ft 356 kts 217°
2026-05-07 20:13 68.13959 -14.97979 34264 ft 356 kts 217°
2026-05-07 20:14 68.09945 -15.05608 34256 ft 356 kts 217°
2026-05-07 20:14 68.05911 -15.13240 34257 ft 356 kts 216°
2026-05-07 20:15 68.01879 -15.20830 34259 ft 356 kts 217°
2026-05-07 20:15 67.97856 -15.28375 34258 ft 356 kts 217°
2026-05-07 20:16 67.93797 -15.35955 34257 ft 356 kts 217°
2026-05-07 20:16 67.89761 -15.43459 34256 ft 356 kts 217°
2026-05-07 20:17 67.85588 -15.51185 34252 ft 356 kts 217°
2026-05-07 20:17 67.81545 -15.58636 34251 ft 356 kts 217°
2026-05-07 20:18 67.77428 -15.66189 34249 ft 356 kts 216°
2026-05-07 20:18 67.73368 -15.73608 34251 ft 356 kts 216°
2026-05-07 20:19 67.69296 -15.81015 34256 ft 356 kts 216°
2026-05-07 20:19 67.65237 -15.88365 34262 ft 356 kts 216°
2026-05-07 20:20 67.61176 -15.95691 34264 ft 356 kts 216°
2026-05-07 20:20 67.57128 -16.02963 34266 ft 356 kts 216°
2026-05-07 20:21 67.53048 -16.10262 34267 ft 356 kts 216°
2026-05-07 20:21 67.48964 -16.17536 34268 ft 356 kts 216°
2026-05-07 20:22 67.44876 -16.24782 34265 ft 356 kts 216°
2026-05-07 20:22 67.40780 -16.32017 33936 ft 367 kts 216°
2026-05-07 20:22 67.38639 -16.35784 33625 ft 373 kts 216°
2026-05-07 20:23 67.36504 -16.39534 33243 ft 375 kts 216°
2026-05-07 20:23 67.34361 -16.43290 32812 ft 374 kts 216°
2026-05-07 20:23 67.32241 -16.47000 32398 ft 371 kts 217°
2026-05-07 20:23 67.30099 -16.50739 32017 ft 369 kts 217°
2026-05-07 20:24 67.27988 -16.54413 31634 ft 367 kts 217°
2026-05-07 20:24 67.25891 -16.58054 31247 ft 365 kts 217°
2026-05-07 20:24 67.23824 -16.61641 30825 ft 363 kts 217°
2026-05-07 20:24 67.21731 -16.65264 30327 ft 361 kts 216°
2026-05-07 20:25 67.19675 -16.68816 29847 ft 362 kts 216°
2026-05-07 20:25 67.17591 -16.72403 29358 ft 364 kts 216°
2026-05-07 20:25 67.15479 -16.76034 28867 ft 365 kts 216°
2026-05-07 20:25 67.13388 -16.79620 28394 ft 365 kts 216°
2026-05-07 20:26 67.11283 -16.83222 27899 ft 365 kts 216°
2026-05-07 20:26 67.09204 -16.86776 27352 ft 363 kts 216°
2026-05-07 20:26 67.07101 -16.90360 26807 ft 365 kts 216°
2026-05-07 20:26 67.04978 -16.93970 26390 ft 368 kts 216°
2026-05-07 20:27 67.02846 -16.97586 25984 ft 371 kts 216°
2026-05-07 20:27 67.00700 -17.01222 25572 ft 373 kts 216°
2026-05-07 20:27 66.98566 -17.04831 25156 ft 374 kts 216°
2026-05-07 20:27 66.96377 -17.08520 24724 ft 374 kts 216°
2026-05-07 20:28 66.94232 -17.12131 24303 ft 373 kts 216°
2026-05-07 20:28 66.92074 -17.15754 23887 ft 372 kts 216°
2026-05-07 20:28 66.89929 -17.19348 23474 ft 371 kts 216°
2026-05-07 20:28 66.87666 -17.23133 23031 ft 369 kts 215°
2026-05-07 20:29 66.85361 -17.26978 22587 ft 368 kts 215°
2026-05-07 20:29 66.83041 -17.30837 22148 ft 366 kts 215°
2026-05-07 20:29 66.80788 -17.34578 21721 ft 364 kts 215°
2026-05-07 20:29 66.78538 -17.38305 21289 ft 362 kts 216°
2026-05-07 20:30 66.76350 -17.41921 20874 ft 361 kts 215°
2026-05-07 20:30 66.74152 -17.45549 20456 ft 359 kts 215°
2026-05-07 20:30 66.71960 -17.49157 20046 ft 357 kts 216°
2026-05-07 20:30 66.69811 -17.52686 19641 ft 355 kts 215°
2026-05-07 20:31 66.67635 -17.56256 19233 ft 353 kts 215°
2026-05-07 20:31 66.65439 -17.59847 18823 ft 351 kts 215°
2026-05-07 20:31 66.63268 -17.63408 18431 ft 348 kts 218°
2026-05-07 20:31 66.61384 -17.67874 18422 ft 332 kts 224°
2026-05-07 20:32 66.59576 -17.72059 18410 ft 324 kts 225°
2026-05-07 20:32 66.57935 -17.75834 18400 ft 319 kts 225°
2026-05-07 20:32 66.56288 -17.79561 18391 ft 316 kts 219°
2026-05-07 20:32 66.54442 -17.82659 18404 ft 314 kts 214°
2026-05-07 20:33 66.52549 -17.85600 17784 ft 332 kts 213°
2026-05-07 20:33 66.50527 -17.88656 17037 ft 346 kts 212°
2026-05-07 20:33 66.48460 -17.91746 16299 ft 350 kts 212°
2026-05-07 20:33 66.46390 -17.94821 15670 ft 340 kts 212°
2026-05-07 20:34 66.44391 -17.97787 15040 ft 325 kts 212°
2026-05-07 20:34 66.42489 -18.00604 14317 ft 317 kts 212°
2026-05-07 20:34 66.40592 -18.03409 13465 ft 318 kts 212°
2026-05-07 20:34 66.38693 -18.06212 12615 ft 318 kts 212°
2026-05-07 20:35 66.36809 -18.08986 11769 ft 316 kts 212°
2026-05-07 20:35 66.34931 -18.11743 10972 ft 311 kts 211°
2026-05-07 20:35 66.33123 -18.14393 10692 ft 295 kts 211°
2026-05-07 20:35 66.31391 -18.16931 10397 ft 289 kts 211°
2026-05-07 20:36 66.29675 -18.19438 9984 ft 289 kts 211°
2026-05-07 20:36 66.27952 -18.21951 9635 ft 285 kts 211°
2026-05-07 20:36 66.26258 -18.24421 9295 ft 283 kts 211°
2026-05-07 20:36 66.24590 -18.26846 8971 ft 280 kts 211°
2026-05-07 20:37 66.22909 -18.29291 8656 ft 279 kts 211°
2026-05-07 20:37 66.21253 -18.31692 8348 ft 277 kts 211°
2026-05-07 20:37 66.19578 -18.34119 8038 ft 276 kts 211°
2026-05-07 20:37 66.17938 -18.36489 7734 ft 275 kts 211°
2026-05-07 20:38 66.16305 -18.38849 7436 ft 274 kts 211°
2026-05-07 20:38 66.14650 -18.41236 7130 ft 272 kts 211°
2026-05-07 20:38 66.12987 -18.43236 7003 ft 265 kts 190°
2026-05-07 20:38 66.11198 -18.42856 6961 ft 254 kts 164°
2026-05-07 20:39 66.09480 -18.41716 6848 ft 259 kts 161°
2026-05-07 20:39 66.07753 -18.40474 6730 ft 263 kts 161°
2026-05-07 20:39 66.05994 -18.39195 6608 ft 260 kts 161°
2026-05-07 20:39 66.04264 -18.37938 6489 ft 256 kts 161°
2026-05-07 20:40 66.02577 -18.36715 6375 ft 253 kts 161°
2026-05-07 20:40 66.00894 -18.35495 6263 ft 251 kts 161°
2026-05-07 20:40 65.99234 -18.34293 6150 ft 249 kts 161°
2026-05-07 20:40 65.97567 -18.33088 6068 ft 247 kts 161°
2026-05-07 20:41 65.95945 -18.31835 6068 ft 241 kts 159°
2026-05-07 20:41 65.94365 -18.30535 6054 ft 239 kts 159°
2026-05-07 20:41 65.92783 -18.29232 5781 ft 244 kts 159°
2026-05-07 20:41 65.91152 -18.27893 5464 ft 244 kts 159°
2026-05-07 20:42 65.89510 -18.26502 5136 ft 242 kts 154°
2026-05-07 20:42 65.87799 -18.24878 4774 ft 238 kts 141°
2026-05-07 20:42 65.86608 -18.21813 4466 ft 232 kts 128°
2026-05-07 20:42 65.85516 -18.18780 4131 ft 232 kts 128°
2026-05-07 20:43 65.84441 -18.15793 3799 ft 232 kts 128°
2026-05-07 20:43 65.83221 -18.13255 3443 ft 237 kts 155°
2026-05-07 20:43 65.81633 -18.12174 3123 ft 227 kts 167°
2026-05-07 20:43 65.80067 -18.11545 2928 ft 212 kts 170°
2026-05-07 20:44 65.78593 -18.11049 2816 ft 193 kts 170°
2026-05-07 20:44 65.77188 -18.10593 2465 ft 170 kts 170°
2026-05-07 20:44 65.75994 -18.10207 2161 ft 154 kts 169°
2026-05-07 20:44 65.74766 -18.09804 1890 ft 154 kts 169°
2026-05-07 20:45 65.73607 -18.09430 1603 ft 141 kts 170°
2026-05-07 20:45 65.72583 -18.09104 1372 ft 129 kts 170°
2026-05-07 20:45 65.71627 -18.08766 1100 ft 126 kts 168°
2026-05-07 20:45 65.70670 -18.08398 817 ft 127 kts 170°
2026-05-07 20:46 65.69716 -18.08081 625 ft 125 kts 172°
2026-05-07 20:46 65.68701 -18.07833 409 ft 124 kts 172°
2026-05-07 20:46 65.67768 -18.07618 226 ft 123 kts 174°
2026-05-07 20:46 65.66816 -18.07410 7 ft 124 kts 176°
2026-05-07 20:47 65.66015 -18.07274 -49 ft 44 kts 173°
2026-05-07 20:47 65.65698 -18.07200 -49 ft 42 kts 178°
2026-05-07 20:47 65.65499 -18.07173 -49 ft 10 kts 204°
2026-05-07 20:47 65.65474 -18.07400 -50 ft 7 kts 239°
2026-05-07 20:48 65.65417 -18.07424 -49 ft 5 kts 243°
2026-05-07 20:48 65.65427 -18.07498 -48 ft 0 kts 358°